Weather History for La Paz, Mexico

Change the Weather History Date:

Thursday, October 13, 2011

  Actual Average Record
Temperature  
Mean Temperature 85 °F -  
Max Temperature 100 °F 87 °F 100 °F (2006)
Min Temperature 70 °F 64 °F 60 °F (2004)
Cooling Degree Days 20    
Growing Degree Days 35 (Base 50)    
Moisture  
Dew Point 58 °F    
Average Humidity 43    
Maximum Humidity 73    
Minimum Humidity 13    
Precipitation  
Precipitation 0.00 in - - ()
Sea Level Pressure  
Sea Level Pressure 29.83 in    
Wind  
Wind Speed 7 mph ()    
Max Wind Speed 14 mph    
Max Gust Speed -    
Visibility 11.3 miles    
Events      
Averages and records for this station are not official NWS values.
T = Trace of Precipitation, MM = Missing Value Source: Averaged Metar Reports

Daily Weather History Graph

Daily Weather History Graph

Search for Another Location

Airport:

Trip Planner

Search our weather history database for the weather conditions in past years. The results will help you decide how hot, cold, wet, or windy it might be!

Date:

Astronomy

Oct. 13, 2011 Rise Set
Actual Time 7:18 AM MDT 6:57 PM MDT
Civil Twilight 6:55 AM MDT 7:19 PM MDT
Nautical Twilight 6:28 AM MDT 7:46 PM MDT
Astronomical Twilight 6:02 AM MDT 8:12 PM MDT
Moon 7:53 PM MDT (10/13) 8:36 AM MDT (10/13)
Length of Visible Light 12h 24m
Length of Day
11h 39m
Full, 98% of the Moon is Illuminated
Oct 13
Full
Oct 19
Last Quarter
Oct 26
New
Nov 2
First Quarter
Nov 10
Full

Hourly Weather History & Observations

Time (MDT) Temp. Heat Index Dew Point Humidity Pressure Visibility Wind Dir Wind Speed Gust Speed Precip Events Conditions
5:50 AM 72 °F - 49 °F 32% 29.83 in 2 mi SE 4.5 mph - -  
6:06 AM 68.0 °F - 59.0 °F 73% 29.89 in 10.0 mi South 5.8 mph - N/A   Scattered Clouds
6:41 AM 68.0 °F - 59.0 °F 73% 29.85 in 10.0 mi South 6.9 mph - N/A   Partly Cloudy
7:40 AM 66.2 °F - 57.2 °F 73% 29.85 in 10.0 mi South 8.1 mph - N/A   Partly Cloudy
8:44 AM 73.4 °F - 62.6 °F 69% 29.91 in 10.0 mi South 8.1 mph - N/A   Partly Cloudy
8:50 AM 79 °F - 68 °F 61% 29.86 in 16 mi SE 4.5 mph - -  
9:41 AM 78.8 °F - 68.0 °F 69% 29.88 in 10.0 mi SSE 5.8 mph - N/A   Clear
10:40 AM 86.0 °F 87.3 °F 64.4 °F 48% 29.88 in 10.0 mi SW 6.9 mph - N/A   Clear
11:40 AM 89.6 °F 87.3 °F 53.6 °F 29% 29.92 in 10.0 mi WSW 4.6 mph - N/A   Clear
11:50 AM 93 °F - 69 °F 36% 29.86 in 19 mi WSW 4.5 mph - -  
12:41 PM 93.2 °F - 50.0 °F 23% 29.84 in 10.0 mi SSW 6.9 mph - N/A   Clear
1:44 PM 95.0 °F - 44.6 °F 18% 29.81 in 12.0 mi NW 4.6 mph - N/A   Clear
2:41 PM 95.0 °F - 44.6 °F 18% 29.82 in 12.0 mi NNE 11.5 mph - N/A   Clear
2:50 PM 99 °F - 67 °F 26% 29.78 in 19 mi NW 6.7 mph - -  
3:40 PM 96.8 °F - 37.4 °F 13% 29.75 in 10.0 mi NNE 13.8 mph - N/A   Clear
4:41 PM 96.8 °F - 41.0 °F 15% 29.74 in 15.0 mi North 9.2 mph - N/A   Clear
5:41 PM 95.0 °F - 44.6 °F 18% 29.84 in 15.0 mi NNW 5.8 mph - N/A   Clear
5:50 PM 98 °F - 64 °F 24% 29.75 in 19 mi NW 8.9 mph - -  
6:40 PM 91.4 °F 89.1 °F 53.6 °F 28% 29.76 in 10.0 mi WSW 11.5 mph - N/A   Clear
7:41 PM 86.0 °F 86.1 °F 60.8 °F 43% 29.79 in 10.0 mi South 13.8 mph - N/A   Clear
8:43 PM 82.4 °F 83.9 °F 64.4 °F 54% 29.91 in 10.0 mi South 13.8 mph - N/A   Clear
8:50 PM 85 °F - 70 °F 52% 29.81 in 2 mi South 11.2 mph - -  
9:41 PM 78.8 °F - 66.2 °F 65% 29.83 in 10.0 mi SSW 11.5 mph - N/A   Clear
10:40 PM 78.8 °F - 64.4 °F 61% 29.85 in 10.0 mi South 10.4 mph - N/A   Clear